TimeCDT,TemperatureF,Dew PointF,Humidity,Sea Level PressureIn,VisibilityMPH,Wind Direction,Wind SpeedMPH,Gust SpeedMPH,PrecipitationIn,Events,Conditions,WindDirDegrees,DateUTC
12:53 AM,57.9,39.0,49,29.73,10.0,Calm,Calm,-,N/A,,Clear,0,2012-10-18 05:53:00
1:53 AM,57.0,41.0,55,29.74,10.0,NNE,5.8,-,N/A,,Clear,20,2012-10-18 06:53:00
2:53 AM,55.9,41.0,57,29.76,10.0,North,9.2,-,N/A,,Clear,360,2012-10-18 07:53:00
3:53 AM,55.9,41.0,57,29.78,10.0,NNE,9.2,-,N/A,,Clear,20,2012-10-18 08:53:00
4:53 AM,59.0,37.0,44,29.77,10.0,ENE,10.4,-,N/A,,Clear,70,2012-10-18 09:53:00
5:53 AM,55.0,35.1,47,29.82,10.0,NW,4.6,-,N/A,,Clear,320,2012-10-18 10:53:00
6:53 AM,51.1,36.0,56,29.85,10.0,NNE,6.9,-,N/A,,Clear,20,2012-10-18 11:53:00
7:53 AM,51.1,34.0,52,29.90,10.0,North,6.9,-,N/A,,Clear,360,2012-10-18 12:53:00
8:53 AM,52.0,33.1,49,29.94,10.0,North,6.9,-,N/A,,Clear,350,2012-10-18 13:53:00
9:53 AM,57.0,33.1,40,29.98,10.0,North,5.8,-,N/A,,Clear,350,2012-10-18 14:53:00
10:53 AM,63.0,36.0,37,29.99,10.0,SE,9.2,-,N/A,,Clear,130,2012-10-18 15:53:00
11:53 AM,66.0,36.0,33,29.99,10.0,East,8.1,-,N/A,,Clear,100,2012-10-18 16:53:00
12:53 PM,69.1,37.0,31,29.97,10.0,Variable,4.6,-,N/A,,Clear,0,2012-10-18 17:53:00
1:53 PM,71.1,37.9,30,29.95,10.0,Variable,4.6,-,N/A,,Clear,0,2012-10-18 18:53:00
2:53 PM,73.9,37.9,27,29.91,10.0,East,5.8,-,N/A,,Clear,100,2012-10-18 19:53:00
3:53 PM,75.0,34.0,22,29.89,10.0,East,5.8,-,N/A,,Clear,90,2012-10-18 20:53:00
4:53 PM,75.9,34.0,22,29.87,10.0,Calm,Calm,-,N/A,,Clear,0,2012-10-18 21:53:00
5:53 PM,77.0,34.0,21,29.86,10.0,ENE,3.5,-,N/A,,Clear,70,2012-10-18 22:53:00
6:53 PM,73.9,35.1,24,29.87,10.0,ESE,5.8,-,N/A,,Clear,120,2012-10-18 23:53:00
7:53 PM,66.0,36.0,33,29.90,10.0,East,8.1,-,N/A,,Clear,90,2012-10-19 00:53:00
8:53 PM,63.0,36.0,37,29.92,10.0,ESE,6.9,-,N/A,,Clear,110,2012-10-19 01:53:00
9:53 PM,60.1,36.0,41,29.93,10.0,East,6.9,-,N/A,,Clear,100,2012-10-19 02:53:00
10:53 PM,57.9,36.0,44,29.94,10.0,ESE,6.9,-,N/A,,Clear,110,2012-10-19 03:53:00
11:53 PM,57.9,34.0,41,29.94,10.0,SE,9.2,-,N/A,,Clear,130,2012-10-19 04:53:00